Temp
-5 -4 -4 -4 -4 -2 -2 -3 -3 -3 -3 -3 -2 -2 -2 -2 -2 -1 -1 -1 -0 -0 -0 -1 -0 0 1 1 0 1 1 1 1 1 2 1 1 1 1 1 1 1 1 1
-5 -4 -4 -4 -3 -4 -3 -3 -3 -3 -3 -2 -2 -2 -2 -1 -1 -1 -0 0 0 1 1 1 1 1 1 1 1 1 1 1 1 1 1 1 1 1 1 1 1 0 0 0
-4 -4 -3 -3 -4 -4 -3 -3 -3 -3 -3 -3 -2 -1 -1 -1 -1 -1 -0 0 0 1 1 1 1 1 1 1 1 1 1 1 0 0 0 0 0 0 0 -0 -0 0 0 0
-3 -4 -2 -5 -4 -4 -3 -3 -3 -3 -2 -2 -2 -1 -1 -1 -0 -0 -0 -0 0 1 1 1 1 1 1 1 1 0 0 0 -0 -0 -0 0 -0 -0 -0 -0 -0 -0 -0 -0
-3 -4 -5 -5 -5 -4 -4 -4 -3 -3 -3 -2 -2 -2 -2 -1 -1 -1 -0 -0 0 0 0 1 1 0 0 1 1 1 0 0 -0 -0 -0 -0 -0 -0 -1 -1 -0 -0 -0 -1
-3 -3 -2 -4 -4 -5 -4 -4 -4 -4 -3 -3 -3 -3 -2 -2 -1 -1 -1 -1 -0 0 0 0 0 0 0 0 0 0 -0 -0 -0 -0 -0 -1 -1 -1 -1 -1 -1 -1 -1 -1
-4 -4 -4 -4 -4 -4 -3 -4 -4 -4 -4 -3 -3 -3 -3 -3 -2 -2 -2 -1 -1 -1 -0 -0 -0 -0 -0 -0 -0 -0 -0 -1 -1 -1 -1 -1 -1 -1 -1 -1 -1 -2 -2 -2
-4 -4 -4 -4 -4 -4 -3 -4 -4 -4 -4 -4 -4 -4 -4 -3 -3 -3 -3 -2 -2 -2 -1 -1 -1 -1 -1 -1 -2 -2 -1 -1 -1 -1 -2 -2 -2 -2 -2 -2 -2 -2 -2 -2
-4 -4 -4 -4 -3 -4 -4 -4 -4 -4 -4 -4 -4 -4 -4 -4 -4 -4 -4 -3 -3 -3 -3 -3 -3 -3 -3 -3 -3 -3 -3 -3 -3 -3 -3 -3 -3 -3 -3 -3 -3 -3 -3 -3
-4 -4 -4 -4 -4 -4 -4 -4 -4 -4 -4 -4 -4 -4 -3 -3 -3 -3 -4 -4 -4 -4 -4 -4 -5 -5 -5 -4 -5 -4 -4 -4 -4 -3 -3 -3 -3 -4 -4 -4 -4 -4 -4 -4
-4 -4 -4 -4 -4 -4 -4 -4 -4 -4 -4 -4 -4 -4 -4 -4 -4 -4 -4 -4 -4 -4 -5 -5 -5 -5 -5 -4 -4 -4 -4 -4 -4 -4 -4 -4 -4 -4 -4 -4 -4 -4 -4 -4
-3 -3 -4 -4 -4 -4 -4 -4 -4 -4 -4 -4 -4 -4 -4 -4 -4 -4 -4 -4 -4 -5 -5 -5 -5 -5 -6 -6 -6 -5 -5 -5 -5 -5 -4 -4 -4 -4 -4 -4 -4 -4 -4 -4
-3 -3 -3 -4 -4 -4 -4 -4 -4 -5 -5 -5 -5 -5 -5 -5 -5 -5 -5 -5 -5 -5 -5 -5 -5 -5 -6 -6 -6 -5 -5 -5 -6 -6 -5 -5 -5 -5 -5 -4 -4 -4 -5 -4
-2 -3 -3 -4 -4 -4 -4 -4 -4 -4 -4 -4 -5 -5 -5 -5 -5 -5 -5 -6 -6 -6 -5 -5 -5 -6 -6 -6 -6 -6 -6 -6 -6 -6 -6 -6 -6 -6 -5 -5 -6 -5 -5 -5
-1 -2 -3 -3 -3 -4 -4 -4 -4 -4 -4 -4 -5 -5 -5 -5 -5 -6 -6 -7 -7 -7 -6 -6 -6 -6 -6 -6 -6 -7 -7 -6 -6 -7 -6 -6 -6 -6 -6 -5 -5 -5 -5 -5
-1 -2 -2 -3 -3 -3 -4 -4 -4 -3 -4 -4 -4 -5 -5 -5 -5 -5 -5 -6 -6 -6 -6 -6 -7 -7 -7 -7 -7 -7 -7 -7 -7 -7 -7 -7 -7 -7 -7 -6 -6 -6 -6 -5
-1 -1 -2 -3 -3 -3 -4 -4 -4 -3 -3 -4 -4 -4 -4 -5 -5 -5 -5 -6 -6 -6 -7 -7 -8 -8 -7 -7 -7 -7 -7 -7 -7 -7 -8 -8 -8 -8 -8 -7 -7 -6 -6 -6
-0 -1 -2 -3 -3 -3 -4 -4 -3 -4 -4 -4 -4 -5 -5 -5 -6 -6 -6 -7 -7 -7 -8 -8 -8 -8 -8 -8 -8 -8 -8 -8 -8 -8 -8 -9 -9 -9 -9 -8 -9 -8 -7 -7
-1 -1 -2 -3 -3 -4 -4 -4 -4 -4 -4 -4 -4 -5 -5 -5 -6 -7 -7 -7 -8 -8 -8 -8 -8 -8 -8 -8 -8 -9 -9 -9 -10 -10 -10 -9 -9 -10 -10 -10 -9 -9 -8 -8
-1 -2 -2 -3 -3 -4 -4 -4 -4 -4 -4 -4 -5 -5 -5 -6 -7 -7 -7 -8 -8 -8 -9 -9 -8 -9 -9 -9 -9 -9 -10 -10 -10 -10 -10 -11 -12 -12 -12 -10 -10 -10 -9 -9
-1 -2 -2 -3 -4 -4 -4 -4 -4 -4 -4 -4 -5 -5 -6 -7 -8 -8 -8 -9 -9 -9 -9 -10 -10 -10 -10 -10 -10 -10 -11 -11 -12 -12 -13 -12 -13 -12 -12 -11 -11 -10 -10 -10
-2 -2 -3 -3 -4 -4 -4 -4 -4 -4 -5 -5 -5 -6 -6 -7 -8 -9 -9 -9 -10 -10 -10 -10 -11 -11 -11 -11 -11 -11 -12 -12 -13 -13 -13 -12 -12 -12 -12 -12 -11 -11 -11 -11
-2 -3 -3 -4 -4 -4 -4 -4 -5 -5 -5 -5 -6 -6 -7 -7 -8 -9 -10 -10 -10 -10 -11 -11 -11 -11 -11 -11 -12 -12 -13 -13 -13 -13 -13 -13 -13 -12 -12 -12 -13 -12 -12 -11
-3 -4 -4 -4 -4 -4 -5 -5 -5 -6 -6 -6 -6 -7 -7 -8 -8 -9 -10 -10 -10 -10 -11 -11 -11 -11 -11 -11 -11 -12 -12 -12 -12 -12 -13 -13 -12 -12 -12 -12 -12 -12 -12 -11
-4 -4 -4 -5 -5 -5 -6 -6 -6 -6 -7 -7 -7 -7 -8 -8 -9 -9 -9 -10 -10 -10 -11 -11 -11 -11 -11 -11 -11 -11 -12 -12 -12 -12 -12 -12 -12 -11 -11 -11 -11 -11 -11 -11
-4 -5 -5 -5 -6 -6 -6 -7 -7 -7 -7 -8 -8 -8 -9 -9 -9 -10 -10 -10 -10 -10 -11 -11 -11 -11 -11 -12 -12 -12 -12 -12 -12 -12 -12 -11 -11 -11 -11 -11 -11 -11 -11 -11
-5 -5 -5 -6 -6 -6 -7 -7 -8 -8 -8 -9 -9 -9 -10 -10 -10 -10 -10 -11 -11 -11 -11 -12 -12 -12 -12 -12 -12 -12 -12 -12 -12 -12 -12 -11 -11 -11 -11 -11 -11 -11 -11 -11
Height
3026 3025 3025 3024 3022 3020 3017 3018 3021 3026 3024 3025 3027 3030 3030 3029 3029 3028 3029 3031 3034 3037 3041 3046 3052 3056 3060 3064 3069 3072 3074 3076 3079 3082 3086 3089 3093 3096 3097 3100 3104 3106 3109 3111
3029 3030 3031 3030 3031 3029 3027 3028 3027 3029 3029 3032 3034 3036 3037 3038 3037 3037 3036 3038 3041 3043 3044 3048 3052 3054 3056 3062 3067 3069 3070 3074 3077 3079 3082 3086 3090 3092 3094 3096 3099 3102 3103 3105
3030 3029 3029 3031 3031 3031 3032 3031 3030 3031 3035 3037 3037 3038 3040 3041 3041 3041 3041 3040 3042 3043 3045 3047 3050 3051 3056 3058 3060 3064 3068 3071 3074 3076 3078 3081 3085 3088 3090 3092 3094 3096 3097 3099
3030 3030 3033 3038 3035 3033 3032 3033 3034 3036 3038 3040 3042 3043 3044 3042 3042 3042 3043 3044 3043 3043 3045 3046 3049 3052 3053 3056 3060 3062 3065 3067 3071 3073 3075 3078 3080 3082 3084 3086 3087 3089 3090 3091
3031 3031 3035 3035 3035 3036 3036 3038 3038 3040 3042 3043 3042 3041 3040 3040 3040 3041 3043 3044 3045 3044 3045 3047 3050 3050 3051 3054 3057 3058 3061 3063 3065 3068 3071 3073 3074 3075 3078 3079 3080 3080 3082 3083
3031 3033 3034 3035 3036 3037 3038 3040 3040 3040 3040 3040 3041 3041 3041 3040 3041 3042 3042 3043 3044 3044 3044 3044 3046 3048 3050 3050 3051 3055 3056 3059 3061 3063 3064 3066 3067 3068 3069 3071 3071 3072 3074 3076
3033 3034 3036 3034 3035 3036 3039 3044 3040 3041 3042 3043 3043 3045 3043 3042 3042 3042 3042 3043 3042 3041 3041 3042 3042 3043 3044 3047 3049 3051 3051 3051 3052 3054 3056 3059 3060 3061 3062 3063 3064 3065 3067 3067
3036 3036 3038 3037 3039 3041 3041 3040 3042 3043 3045 3046 3047 3045 3043 3043 3043 3042 3041 3041 3040 3039 3038 3037 3037 3038 3038 3039 3041 3043 3043 3045 3048 3048 3049 3051 3052 3054 3056 3058 3059 3059 3059 3062
3037 3036 3036 3037 3039 3040 3041 3041 3042 3044 3044 3045 3045 3045 3045 3044 3042 3040 3040 3039 3038 3037 3036 3036 3035 3035 3033 3034 3036 3037 3037 3038 3040 3041 3043 3046 3048 3047 3049 3051 3051 3051 3051 3053
3037 3036 3037 3037 3038 3039 3040 3041 3042 3043 3043 3042 3042 3041 3040 3040 3039 3038 3036 3036 3036 3035 3033 3032 3032 3032 3032 3035 3034 3035 3034 3034 3034 3036 3037 3037 3037 3038 3040 3042 3042 3042 3043 3045
3034 3035 3037 3038 3039 3039 3040 3041 3041 3041 3041 3041 3040 3040 3040 3039 3038 3037 3037 3036 3035 3033 3032 3031 3030 3029 3030 3031 3032 3030 3028 3029 3030 3030 3030 3030 3031 3031 3032 3032 3034 3034 3035 3036
3031 3033 3035 3036 3036 3037 3038 3039 3040 3040 3040 3039 3038 3038 3037 3037 3036 3036 3035 3034 3033 3031 3030 3029 3028 3028 3028 3027 3026 3024 3024 3023 3022 3022 3022 3021 3020 3020 3022 3023 3023 3026 3026 3027
3030 3031 3033 3033 3034 3035 3036 3036 3036 3036 3036 3035 3035 3034 3033 3031 3030 3031 3030 3029 3028 3028 3026 3025 3024 3023 3022 3021 3019 3017 3015 3015 3014 3014 3013 3013 3013 3014 3013 3015 3016 3016 3017 3018
3027 3029 3030 3031 3032 3033 3033 3033 3032 3032 3032 3032 3031 3030 3029 3027 3026 3025 3023 3022 3021 3020 3019 3019 3018 3016 3014 3013 3011 3010 3009 3008 3007 3007 3006 3005 3005 3005 3006 3006 3007 3007 3007 3008
3025 3027 3028 3029 3030 3030 3030 3030 3030 3030 3029 3027 3027 3025 3024 3022 3020 3019 3017 3017 3015 3014 3012 3010 3009 3008 3007 3006 3005 3003 3002 3000 2999 2999 2998 2997 2997 2996 2996 2996 2996 2996 2997 2997
3023 3024 3025 3026 3027 3028 3028 3027 3026 3026 3024 3022 3021 3020 3018 3016 3014 3012 3010 3009 3007 3006 3004 3002 3001 2999 2999 2998 2997 2995 2994 2993 2991 2990 2990 2990 2989 2989 2988 2987 2987 2987 2987 2986
3020 3021 3022 3023 3024 3024 3024 3024 3023 3021 3020 3017 3016 3014 3012 3010 3009 3007 3004 3002 3000 2999 2997 2995 2994 2993 2991 2990 2988 2986 2985 2984 2982 2981 2980 2980 2980 2979 2979 2979 2978 2978 2977 2976
3017 3018 3019 3019 3020 3020 3020 3020 3019 3017 3015 3013 3011 3009 3006 3005 3002 3000 2998 2996 2995 2993 2991 2990 2988 2986 2984 2982 2979 2977 2975 2974 2973 2972 2971 2970 2970 2970 2970 2970 2969 2969 2968 2967
3014 3015 3016 3016 3016 3016 3015 3014 3013 3012 3009 3007 3005 3003 3001 2998 2996 2994 2993 2991 2989 2988 2986 2984 2982 2980 2978 2975 2972 2970 2968 2966 2964 2963 2962 2961 2961 2960 2960 2960 2960 2960 2959 2959
3010 3011 3012 3012 3011 3011 3010 3009 3008 3006 3003 3001 2998 2996 2994 2992 2990 2989 2987 2985 2984 2982 2981 2979 2976 2974 2972 2969 2967 2964 2962 2960 2958 2955 2954 2952 2951 2951 2952 2952 2951 2951 2951 2950
3006 3007 3007 3007 3006 3006 3004 3003 3001 2999 2996 2994 2992 2990 2988 2986 2985 2984 2982 2980 2979 2977 2975 2973 2970 2968 2966 2963 2961 2958 2956 2954 2952 2950 2948 2947 2945 2944 2944 2943 2943 2943 2943 2943
3002 3003 3002 3002 3002 3000 2999 2997 2994 2992 2990 2988 2986 2983 2982 2980 2979 2977 2975 2974 2972 2971 2968 2967 2965 2962 2960 2957 2955 2953 2950 2948 2946 2945 2943 2941 2939 2937 2936 2935 2935 2935 2935 2935
2997 2997 2997 2997 2996 2994 2993 2990 2988 2986 2983 2982 2980 2977 2975 2973 2972 2970 2969 2967 2965 2963 2962 2959 2957 2956 2953 2951 2949 2947 2944 2942 2941 2939 2937 2935 2932 2929 2928 2927 2927 2927 2927 2927
2993 2993 2993 2992 2990 2989 2987 2984 2982 2980 2978 2976 2974 2972 2970 2967 2965 2963 2962 2960 2958 2957 2954 2952 2950 2949 2947 2945 2943 2941 2939 2937 2936 2934 2931 2929 2927 2925 2923 2922 2921 2921 2921 2921
2988 2988 2987 2986 2984 2982 2980 2978 2976 2974 2972 2970 2968 2966 2964 2962 2960 2957 2955 2954 2952 2950 2948 2946 2944 2942 2940 2939 2937 2935 2933 2930 2929 2927 2925 2924 2922 2919 2917 2916 2915 2915 2915 2914
2983 2983 2982 2980 2978 2976 2974 2972 2970 2968 2966 2965 2962 2960 2958 2956 2954 2951 2949 2948 2945 2942 2941 2939 2938 2936 2934 2932 2930 2928 2926 2924 2923 2921 2920 2918 2916 2914 2913 2911 2910 2910 2909 2909
2978 2977 2975 2974 2972 2970 2968 2966 2964 2962 2960 2958 2956 2952 2951 2949 2947 2945 2943 2940 2938 2936 2934 2932 2931 2929 2927 2925 2923 2921 2920 2918 2917 2916 2914 2912 2911 2909 2908 2907 2906 2906 2905 2904
Wind_Speed
10 10 15 21 22 19 25 18 19 16 23 22 22 20 20 19 15 11 9 8 8 5 8 8 11 14 12 10 12 14 13 13 13 11 11 16 19 21 24 26 27 26 25 24
16 17 15 19 18 20 25 22 22 20 21 17 17 16 12 12 12 10 9 6 7 7 7 11 14 12 10 13 17 19 17 16 15 15 13 15 18 21 23 24 25 26 25 26
2 3 4 10 17 16 17 16 14 14 13 12 10 9 9 8 8 8 6 5 4 6 7 9 12 13 13 17 20 20 20 19 19 17 16 16 17 19 21 23 25 26 26 27
2 1 3 3 7 12 12 14 12 8 6 4 4 4 2 2 3 4 3 2 1 2 6 10 11 14 16 16 19 22 23 22 23 21 20 19 20 21 21 23 24 26 27 27
2 7 6 5 8 10 8 8 7 6 4 1 2 5 7 5 3 4 4 5 6 5 5 7 11 15 17 19 21 23 25 25 25 25 24 24 24 24 26 27 27 27 27 27
3 3 2 4 6 8 8 4 4 3 3 3 3 5 5 6 5 4 5 6 8 10 10 9 8 9 13 16 19 22 24 25 27 28 28 28 28 28 28 27 25 25 25 25
4 4 3 8 6 6 2 3 6 3 1 2 2 2 4 5 6 7 6 6 10 11 12 15 16 15 14 14 15 17 19 21 23 24 26 26 27 26 25 25 24 23 23 22
3 2 2 8 6 4 2 6 3 1 1 2 3 4 5 6 7 7 7 7 7 9 12 14 15 17 17 16 15 15 15 17 17 18 20 21 21 21 22 22 22 23 23 24
4 4 8 12 7 5 6 5 3 3 4 6 7 7 8 8 6 6 6 8 9 9 8 11 14 15 15 16 17 16 15 15 16 16 18 19 20 21 21 22 22 23 22 23
5 8 10 9 9 7 6 5 4 4 4 6 7 9 11 11 10 10 11 9 7 7 9 9 10 12 15 15 18 19 19 19 20 21 22 23 23 23 23 24 24 24 24 25
11 10 11 10 9 8 7 7 6 6 7 9 10 9 10 13 13 11 11 11 11 10 10 11 12 13 18 17 18 20 15 21 27 32 31 30 28 29 30 30 29 29 28 28
8 10 11 8 9 8 8 7 8 10 10 10 9 11 13 13 13 13 15 15 16 17 17 17 17 16 18 20 26 28 28 26 22 23 28 27 25 28 35 37 34 34 34 33
9 9 12 12 10 10 10 10 11 12 13 14 14 16 16 16 16 15 16 17 19 21 22 22 22 23 24 23 23 24 24 24 24 25 26 26 25 24 22 25 26 27 29 32
10 10 10 10 9 9 10 10 11 11 12 14 15 16 17 18 19 20 21 22 22 23 23 22 22 23 24 26 26 30 31 29 28 27 28 28 29 29 29 30 31 32 33 35
6 7 8 7 7 6 6 7 9 10 12 14 15 17 18 20 21 22 24 25 26 26 26 26 27 27 27 27 29 31 30 33 32 28 26 27 29 30 31 32 33 34 35 37
5 5 6 7 7 6 6 8 10 12 14 16 17 19 20 21 23 24 26 26 26 26 26 26 26 25 26 25 26 28 32 31 29 26 27 27 27 28 28 29 30 31 32 33
6 7 7 7 7 8 9 11 13 14 15 16 17 18 19 19 20 20 21 22 23 22 22 20 21 22 24 27 29 28 28 32 34 32 29 28 29 30 30 29 30 30 30 30
9 8 8 8 10 11 12 13 14 15 15 16 16 17 18 19 19 20 20 19 19 20 21 22 24 26 27 28 29 29 28 26 28 33 34 32 30 29 29 30 30 29 28 27
12 10 10 10 11 13 14 15 15 17 18 19 19 18 18 19 18 18 18 20 20 20 19 19 20 21 23 23 23 23 23 24 24 27 28 31 31 29 27 26 26 26 25 24
13 12 12 12 13 15 16 17 17 18 20 20 20 19 18 18 17 17 17 17 17 18 18 19 20 20 20 20 21 21 23 24 26 25 26 25 23 23 22 22 22 22 21 21
15 14 14 14 15 16 18 19 20 19 20 21 21 21 20 19 18 18 19 20 20 20 19 19 19 19 20 21 21 21 22 21 20 21 21 24 25 22 21 19 18 17 17 18
16 15 16 16 16 18 19 21 21 20 20 20 20 22 22 21 20 20 21 21 21 19 20 21 21 20 19 19 20 21 22 21 21 21 21 22 21 22 23 22 22 22 21 20
15 16 16 16 18 19 21 21 21 20 20 20 20 21 22 22 22 21 21 21 20 21 21 22 20 20 20 20 20 20 19 18 18 18 17 19 19 17 17 17 16 19 22 22
15 16 16 17 19 20 20 21 20 20 19 20 19 20 20 20 20 20 20 21 20 21 21 22 22 22 21 20 20 19 19 20 19 20 20 20 18 18 19 19 20 20 20 19
15 15 17 18 20 20 20 21 19 19 19 18 18 19 18 18 17 19 19 19 19 20 21 21 20 20 20 21 22 22 22 22 20 19 20 20 19 18 17 14 13 13 12 12
15 17 18 19 21 21 21 20 19 19 20 19 21 22 22 21 21 22 22 22 23 24 23 22 22 21 20 20 21 21 21 20 19 18 17 17 17 16 14 12 12 12 12 11
16 18 20 21 22 22 21 21 21 21 22 23 24 26 26 24 24 22 22 23 23 22 21 21 21 21 21 21 21 21 20 19 17 17 16 16 15 14 13 13 13 14 13 13
Wind_Direction
81 75 83 66 54 84 94 106 96 104 85 73 72 68 65 66 71 82 86 71 75 80 159 161 179 170 172 202 209 211 215 213 219 235 230 219 214 216 219 221 222 226 229 232
93 98 79 75 83 84 96 90 97 98 85 75 70 62 75 75 75 80 99 132 148 158 189 201 219 211 220 217 223 227 228 227 235 243 240 227 220 219 221 224 229 232 234 239
137 117 62 30 58 82 97 100 98 86 88 76 67 56 55 65 65 65 69 90 149 182 182 193 200 203 214 218 220 222 223 226 227 231 232 230 229 229 230 233 235 238 241 243
106 59 82 79 123 106 100 96 98 101 101 60 24 28 10 310 39 36 18 358 11 192 209 218 220 222 219 217 221 223 225 228 226 228 231 237 243 249 250 253 249 249 248 248
84 68 116 83 131 139 121 110 109 106 119 121 341 332 350 2 335 304 276 274 269 268 249 222 225 231 231 229 230 231 235 238 240 241 242 246 247 250 254 253 253 252 248 247
98 95 94 163 130 151 149 111 141 120 94 57 16 2 341 340 329 302 287 277 255 251 255 255 247 238 236 239 243 244 242 241 241 243 246 250 253 254 253 251 248 248 248 248
79 84 95 154 145 139 81 172 156 136 87 19 344 324 317 320 312 309 298 267 262 261 254 255 263 266 260 253 246 242 245 251 250 248 246 246 246 244 243 242 242 241 244 249
150 114 167 171 159 159 179 160 153 140 337 322 317 327 333 322 308 303 300 294 277 261 257 256 253 257 264 267 266 260 251 246 244 244 242 240 238 235 234 235 236 240 243 247
173 208 162 163 170 168 157 169 195 254 293 307 312 310 307 310 315 314 313 310 298 287 266 248 250 256 257 261 265 265 261 259 254 246 244 241 239 239 240 241 242 242 246 251
173 177 166 170 168 174 188 202 237 262 279 293 300 307 308 307 301 300 306 304 305 295 294 287 265 260 268 266 264 263 259 260 259 255 249 247 246 246 247 247 247 246 247 250
207 200 191 192 198 206 216 230 237 252 272 294 292 287 298 297 292 288 283 279 284 290 287 282 280 271 254 259 261 251 246 262 258 255 255 251 246 244 244 245 245 246 249 254
217 207 207 208 216 223 231 245 251 261 275 289 287 280 288 289 293 293 286 282 281 284 286 284 283 276 269 267 261 266 263 265 269 269 268 269 263 257 252 252 246 248 252 257
206 207 211 220 226 236 249 258 266 273 280 281 283 285 287 291 289 286 283 280 279 278 279 277 277 277 274 274 274 271 267 267 269 270 271 276 273 264 256 253 255 252 253 256
210 214 220 228 232 239 250 259 268 275 279 281 283 285 289 291 289 288 285 281 278 278 275 275 276 278 277 275 280 277 270 265 265 268 271 272 272 272 270 269 267 266 265 265
203 204 210 222 228 231 245 260 271 276 278 278 280 282 285 287 287 284 283 283 282 279 280 281 277 274 275 275 279 285 287 269 260 260 268 273 272 271 271 271 272 271 270 268
233 223 221 228 237 242 266 281 287 290 287 283 279 278 280 282 282 282 280 279 279 281 283 282 280 281 281 282 284 285 280 282 271 267 267 266 270 271 270 270 270 271 271 270
251 247 249 252 258 271 285 290 292 290 286 284 284 285 285 285 286 284 284 281 281 283 282 282 282 284 283 285 285 284 288 282 283 264 260 264 269 270 266 269 272 272 272 270
250 256 258 264 272 282 290 294 295 295 290 289 290 289 288 288 288 287 285 284 281 282 284 286 287 288 288 288 287 287 284 285 283 278 269 261 258 262 265 268 268 272 272 269
248 252 260 269 276 284 291 295 297 296 293 293 293 291 290 289 288 284 283 283 286 288 291 294 294 294 293 292 292 293 295 292 288 282 278 273 267 264 263 267 268 266 268 267
246 253 263 272 279 288 294 298 298 295 292 294 293 292 290 288 286 285 284 282 285 287 293 295 295 295 297 298 299 300 300 299 293 286 283 277 275 272 267 265 265 266 263 261
246 254 263 274 284 292 297 299 299 295 293 293 293 291 289 286 283 281 280 281 285 288 290 289 290 293 296 299 301 302 301 299 298 296 289 279 266 259 260 262 262 261 264 263
249 256 266 277 287 294 299 300 300 297 294 293 291 290 289 287 285 281 281 284 288 287 286 288 291 293 296 300 303 306 305 298 291 287 285 283 279 276 268 261 260 257 259 261
254 262 272 282 291 296 300 300 299 297 293 291 291 290 290 290 288 284 284 285 283 284 288 289 291 291 294 296 296 302 301 296 288 285 292 295 300 293 281 271 271 278 275 270
263 271 278 286 293 298 300 298 299 297 294 292 291 291 293 292 290 286 283 283 283 285 286 286 289 290 291 290 290 287 289 287 291 296 295 296 292 289 285 281 275 266 264 266
271 277 285 292 297 299 299 299 298 294 293 292 293 294 296 294 292 285 285 284 283 283 284 285 287 287 288 289 289 289 286 287 291 287 290 290 289 289 289 285 279 273 267 263
275 283 290 295 298 298 298 296 294 292 290 291 291 292 294 295 292 287 286 285 284 283 285 286 286 287 289 290 291 289 288 287 288 289 291 294 294 290 287 285 282 278 276 277
282 289 295 297 295 296 295 293 291 289 290 288 288 290 293 294 293 293 289 284 283 285 287 288 290 291 291 292 293 290 287 285 284 288 293 297 295 289 286 285 286 286 285 284